Regional Weather Roundup
Issued by NWS Green Bay, WI

Home | Current Version | Previous Version | Text Only | Print | Product List | Glossary On
Versions: 1 2 3 4 5 6 7 8 9 10 11 12 13 14 15 16 17 18 19 20 21 22 23 24 25 26 27 28 29 30 31 32 33 34 35 36 37 38 39 40 41 42 43 44 45 46 47 48 49 50
000
ASUS43 KGRB 290510
RWRGRB

NORTH-CENTRAL AND NORTHEAST WISCONSIN REGIONAL WEATHER ROUNDUP
NATIONAL WEATHER SERVICE GREEN BAY WI
1100 PM CST WED JAN 28 2015

WIZ005-009-010>012-018-019-290600-
NORTH CENTRAL WISCONSIN

CITY           SKY/WX    TMP DP  RH WIND       PRES   REMARKS
IRONWOOD       CLOUDY    28  23  80 CALM      29.78S
MANITOWISH WTR CLOUDY    26  21  81 S3        29.79S
ARBOR VITAE    CLOUDY    28  22  78 S5        29.79S
EAGLE RIVER    CLOUDY    26  20  79 CALM      29.79F
LAND O LAKES   CLOUDY    27  22  80 CALM      29.80F
RHINELANDER    CLOUDY    26  20  77 S3        29.79F
PHILLIPS       CLOUDY    27  21  79 S5        29.78F
ANTIGO         CLOUDY    25  22  85 SE10      29.80F
TOMAHAWK       CLOUDY    26  20  80 CALM      29.80F
MERRILL        CLOUDY    27  22  82 CALM      29.80F
$$

WIZ013-073-290600-
NORTHEAST WISCONSIN

CITY           SKY/WX    TMP DP  RH WIND       PRES   REMARKS
IRON MOUNTAIN  CLOUDY    28  23  81 SE9       29.82F
MARINETTE      CLOUDY    30  23  74 S9        29.86F
OCONTO         CLOUDY    31  25  78 MISG      29.86F
$$

WIZ017-030-035>037-045-290600-
CENTRAL WISCONSIN

CITY           SKY/WX    TMP DP  RH WIND       PRES   REMARKS
MEDFORD        CLOUDY    26  22  86 S7        29.79F
WAUSAU         CLOUDY    27  21  78 SE8       29.80F
MOSINEE        CLOUDY    27  25  93 SE6       29.82F FOG
MARSHFIELD     CLOUDY    27  22  81 SE6       29.80F HAZE
WISC RAPIDS    CLOUDY    28  20  71 E3        29.82F
STEVENS POINT  CLOUDY    26  20  79 E5        29.82F
WAUPACA        CLOUDY    30  23  75 E5        29.84F
SHAWANO        CLOUDY    32  25  76 CALM      29.85F
CLINTONVILLE   CLOUDY    30  23  74 CALM      29.85F
$$

WIZ038-039-048-051-290600-
FOX VALLEY

CITY           SKY/WX    TMP DP  RH WIND       PRES   REMARKS
NWS GREEN BAY  CLOUDY    32  25  75 S8        29.86F
APPLETON       CLOUDY    30  23  74 SE7       29.84F
OSHKOSH        CLOUDY    31  22  69 S3        29.83F
FOND DU LAC    CLOUDY    31  22  69 S9        29.82F
$$

WIZ022-050-052-290600-
EAST CENTRAL WISCONSIN

CITY           SKY/WX    TMP DP  RH WIND       PRES   REMARKS
STURGEON BAY   CLOUDY    32  23  69 S14G23    29.88F
MANITOWOC      CLOUDY    34  27  75 S14       29.88F
SHEBOYGAN      CLOUDY    33  24  69 S13       29.85F
$$

LMZ563-521-522-541>543-290600-
LAKESHORE

STATION/POSITION TIME  TEMP    WIND        PRES    VSBY  WAVE
                       AIR SEA DIR/SP/G                  HT/PER
                 (UTC) (F)     (DEG/KT/KT) (MB)    (MI)  (FT/S)
SHEBOYGAN LKSHOR 0500   34     170/ 22/ 24 1011.7F
KEWAUNEE LKSHORE 0500   33     190/ 17/ 23 1011.2S
NORTHPORT PIER   0500   32     160/ 11/ 16 1012.2F
SISTER BAY LKSHO 0500   32     170/ 14/ 20   N/A
CHAMBERS ISLAND  0500   31     140/  4/ 11 1011.9F
MENOMINEE LKSHOR 0500   31     160/  8     1012.2F
$$



USA.gov is the U.S. government's official web portal to all federal, state and local government web resources and services.